This is the latest recevied weather packets stored in our database for station/object DL9TK-10. If no packets are shown the sender has not sent any weather packets the latest 10 day(s).
| Time | Temp. | Humidity | Pressure | Rain* | Wind** | Luminosity | Snow |
|---|---|---|---|---|---|---|---|
| 1778412696 | 25.56° C | 26% | 1013.4 hPa | - | - | - | - |
| 1778411796 | 25° C | 28% | 1013.3 hPa | - | - | - | - |
| 1778410896 | 25.56° C | 28% | 1013.4 hPa | - | - | - | - |
| 1778409996 | 25.56° C | 29% | 1013.6 hPa | - | - | - | - |
| 1778409096 | 25° C | 30% | 1013.7 hPa | - | - | - | - |
| 1778408196 | 25° C | 29% | 1013.9 hPa | - | - | - | - |
| 1778407296 | 24.44° C | 33% | 1013.9 hPa | - | - | - | - |
| 1778406396 | 23.33° C | 33% | 1014 hPa | - | - | - | - |
| 1778405495 | 22.78° C | 33% | 1014.2 hPa | - | - | - | - |
| 1778404595 | 22.22° C | 35% | 1014.4 hPa | - | - | - | - |
| 1778403695 | 21.67° C | 36% | 1014.5 hPa | - | - | - | - |
| 1778402795 | 21.11° C | 36% | 1014.6 hPa | - | - | - | - |
| 1778401895 | 20.56° C | 37% | 1014.7 hPa | - | - | - | - |
| 1778400995 | 20° C | 39% | 1014.8 hPa | - | - | - | - |
| 1778400095 | 19.44° C | 40% | 1014.9 hPa | - | - | - | - |
| 1778399195 | 18.89° C | 40% | 1014.9 hPa | - | - | - | - |
| 1778398295 | 18.33° C | 41% | 1015.1 hPa | - | - | - | - |
| 1778397395 | 17.78° C | 42% | 1015.1 hPa | - | - | - | - |
| 1778396495 | 17.22° C | 43% | 1015.2 hPa | - | - | - | - |
| 1778395595 | 16.67° C | 43% | 1015.1 hPa | - | - | - | - |
| 1778394695 | 16.67° C | 43% | 1015 hPa | - | - | - | - |
| 1778393795 | 16.11° C | 43% | 1015.3 hPa | - | - | - | - |
| 1778392895 | 15.56° C | 43% | 1015.2 hPa | - | - | - | - |
| 1778391994 | 15° C | 46% | 1015 hPa | - | - | - | - |
| 1778391094 | 15° C | 46% | 1015 hPa | - | - | - | - |
* Rain since midnight (hover to see other rain measurements)
** Current wind speed in m/s (hover to see current wind gust speed)